RH
35 31 32 32 33 34 32 30 28 27 25 24 25 24 26 33 37 38 41 43 47 54 56 58 59 51 43 45 51 54 53 56 61 64 65 67 68 69 69 71 71 71
32 30 31 32 34 36 35 32 29 29 29 28 26 25 28 34 38 39 43 47 53 60 60 60 61 52 46 50 56 58 55 56 61 64 65 66 68 69 70 72 73 73
30 30 31 32 33 36 37 34 31 30 31 32 29 27 29 34 38 42 46 52 60 64 62 62 61 52 49 53 57 59 57 58 63 65 67 69 70 71 71 71 71 72
31 31 32 33 33 36 39 37 33 32 33 34 32 30 31 36 42 47 51 57 63 64 64 64 61 56 56 59 60 61 61 62 66 67 69 70 71 71 70 69 69 70
33 34 34 35 34 36 40 39 36 34 35 36 36 33 33 38 45 50 54 60 63 64 66 64 61 60 62 63 62 63 65 67 68 69 69 69 70 70 70 71 71 72
38 38 36 36 36 37 40 39 37 37 36 38 39 37 36 39 46 50 54 58 62 64 65 62 60 63 63 63 65 66 67 68 68 68 69 70 71 71 72 73 74 74
41 41 39 38 38 38 40 39 38 38 38 40 41 40 39 40 45 50 53 57 61 63 61 57 58 62 62 63 66 67 67 68 68 68 68 69 70 71 72 73 74 76
47 43 42 41 40 42 42 40 39 39 38 41 43 42 42 42 45 50 53 57 60 59 55 52 57 61 62 64 66 67 66 65 65 66 65 66 67 67 68 69 72 74
55 52 48 44 44 45 44 42 40 39 40 43 44 44 44 46 47 50 53 56 56 52 49 52 59 62 63 65 67 65 62 61 63 64 63 64 64 63 62 63 66 69
64 61 57 52 49 47 47 45 41 40 43 45 46 46 47 49 51 52 54 54 51 47 47 53 61 64 66 67 65 62 61 62 64 64 63 63 62 61 60 60 63 65
60 60 61 58 54 51 50 46 42 43 46 47 47 48 50 52 54 56 55 52 48 46 49 56 63 67 67 64 61 61 63 65 65 64 64 64 63 63 63 63 64 65
57 61 62 59 57 56 53 48 45 47 49 48 48 51 53 55 56 57 54 49 48 50 56 63 67 66 63 61 61 64 65 64 64 64 64 65 66 66 66 66 66 66
65 65 63 60 58 56 55 52 50 50 50 49 51 54 56 57 57 55 52 51 54 60 65 67 65 63 61 62 64 64 63 62 62 62 63 65 65 65 65 66 66 66
70 69 64 62 60 57 56 55 53 52 52 52 54 56 55 56 56 54 55 59 64 67 67 65 63 62 63 64 64 61 58 55 53 54 57 58 59 60 60 62 63 65
72 72 68 65 63 60 58 57 55 54 54 54 55 55 54 55 55 55 60 66 68 66 64 63 63 64 65 63 57 49 41 36 36 40 45 48 50 51 52 55 58 61
73 72 70 67 65 62 60 59 59 58 56 56 57 56 55 56 57 60 65 68 67 64 63 64 65 65 62 53 41 30 24 23 26 31 36 41 44 45 46 47 49 52
76 72 70 67 63 61 62 62 61 59 58 59 59 57 57 58 61 66 68 66 65 63 63 65 65 60 51 38 27 22 21 24 28 32 36 39 41 43 44 45 47 49
80 75 71 68 64 63 67 68 65 62 62 63 62 61 61 64 68 69 67 64 64 64 64 64 60 51 39 29 25 24 23 26 30 34 37 38 39 41 43 45 49 51
84 80 75 71 70 70 73 75 72 69 68 66 66 66 68 71 71 68 66 65 65 64 64 62 54 42 31 28 29 27 25 27 30 33 36 36 37 38 40 44 49 54
88 85 80 77 78 77 76 76 74 72 70 67 68 71 72 74 73 68 66 65 64 65 63 58 48 36 28 29 31 30 28 29 31 33 36 37 37 38 40 45 50 55
91 89 87 83 81 79 77 76 75 73 69 68 72 74 73 73 71 68 66 65 64 64 61 52 40 31 27 30 33 32 30 30 32 35 37 39 39 40 43 47 52 57
94 93 91 86 81 78 76 76 75 72 70 73 75 73 71 71 69 66 65 64 64 62 53 43 34 30 30 31 34 34 31 31 33 36 39 42 42 43 46 51 56 60
95 95 92 87 82 79 77 76 72 69 73 76 72 69 69 69 67 65 64 63 61 53 43 36 34 33 32 32 36 36 33 32 35 39 42 44 45 46 51 55 60 63
96 96 90 84 82 80 81 80 74 70 73 70 64 66 69 67 65 64 63 61 53 42 37 36 37 37 35 35 38 38 34 33 38 43 46 47 48 50 55 60 65 66
96 93 87 82 81 80 78 76 73 72 71 66 61 63 64 64 65 64 59 54 45 39 38 39 40 40 39 39 41 39 36 35 40 47 50 51 52 56 61 66 69 70
94 90 84 79 77 76 73 71 70 67 64 60 58 58 59 64 66 59 50 45 42 41 42 43 43 44 43 44 44 42 39 38 43 50 53 55 58 62 67 72 74 74
Wind_Speed
33 31 29 27 25 23 20 18 17 16 15 14 11 9 8 8 7 6 5 3 2 2 4 5 8 10 10 11 12 14 15 15 15 15 14 14 14 13 13 13 13 12
34 32 30 29 27 25 23 20 19 18 16 14 12 10 10 10 8 7 6 5 4 3 3 4 6 8 10 11 11 13 14 14 13 13 13 13 13 13 14 14 14 14
35 34 32 31 29 27 25 23 21 20 17 15 14 12 11 11 10 8 7 6 6 5 3 3 5 7 8 10 10 12 13 13 12 12 13 12 12 13 14 15 15 15
37 36 34 32 30 28 26 24 23 23 20 18 16 14 12 12 11 10 9 9 8 7 4 2 4 5 6 8 9 10 12 11 11 11 12 12 12 13 14 16 16 16
39 38 36 34 31 30 28 26 25 25 23 20 18 15 14 13 12 11 11 10 10 7 4 1 2 4 5 6 8 9 10 10 10 10 11 12 13 14 15 16 16 17
38 38 37 35 33 32 30 28 27 26 24 22 20 18 15 14 13 12 12 11 10 6 3 1 2 3 4 6 7 8 9 9 9 11 12 13 14 15 16 16 17 17
39 38 38 36 35 34 32 30 28 28 26 24 22 20 17 15 14 13 12 11 9 6 3 1 1 2 4 6 7 7 8 9 10 11 12 13 13 14 15 15 16 17
40 39 39 37 36 35 33 31 30 29 27 26 24 22 20 18 16 15 13 11 8 5 3 2 2 2 4 6 7 7 9 10 11 12 13 13 14 14 15 15 15 15
36 36 37 38 37 36 35 33 31 30 29 27 26 24 22 20 18 17 15 12 8 6 4 4 3 3 5 6 6 8 9 10 11 12 13 14 14 15 15 16 15 15
28 30 33 36 37 37 37 34 32 32 30 28 26 25 23 21 20 18 16 13 10 8 6 5 4 4 5 6 7 8 9 9 10 12 13 14 14 15 15 16 16 15
31 33 33 35 37 37 37 36 34 33 30 28 27 25 24 23 21 19 16 14 12 10 8 6 5 5 5 6 6 7 8 9 10 11 12 13 14 14 15 15 15 16
39 37 37 38 38 36 35 35 35 32 30 28 27 25 25 24 21 19 16 14 12 10 9 7 6 5 4 5 5 6 7 9 9 11 12 13 13 14 15 15 16 16
38 37 38 39 39 38 36 35 34 32 30 28 26 26 26 24 21 18 15 13 12 11 9 7 6 4 3 3 4 6 7 9 10 12 13 13 14 14 15 15 16 17
34 35 37 38 39 39 36 35 35 32 30 28 26 26 26 23 20 17 15 13 11 10 9 7 5 4 4 3 5 7 9 11 12 13 14 15 15 16 16 16 17 18
31 32 33 34 36 37 37 37 36 33 31 29 28 27 25 22 20 17 15 14 13 10 8 7 6 5 4 4 6 8 10 11 12 12 13 14 15 16 17 17 18 19
30 30 31 34 36 37 38 37 36 33 31 30 29 27 24 22 20 18 17 16 14 12 9 8 7 6 4 5 6 8 9 9 10 10 11 12 14 15 17 18 18 20
28 30 32 35 37 39 39 39 38 35 33 31 30 27 24 22 20 18 17 16 14 12 10 9 7 5 4 5 6 7 8 9 9 10 10 11 13 15 17 19 20 21
27 30 32 35 38 40 38 35 36 36 34 32 30 27 24 22 21 20 18 16 14 12 10 9 7 6 5 5 6 7 8 9 9 10 11 12 14 16 19 20 22 23
26 29 32 34 35 34 28 25 28 30 30 28 26 24 23 21 20 19 18 16 13 12 11 9 8 7 6 5 7 8 8 8 9 10 11 13 16 18 20 22 23 24
26 29 30 30 29 26 23 24 28 29 28 26 24 23 22 21 20 19 16 14 13 11 11 10 9 8 7 7 8 9 9 9 10 11 13 15 17 20 22 23 24 25
24 27 26 26 26 24 23 27 31 30 29 27 25 23 22 21 20 17 14 13 12 12 11 10 9 8 8 9 10 10 11 11 12 14 15 17 19 21 23 23 24 25
23 25 26 25 26 27 28 32 33 30 28 28 28 25 22 20 18 15 13 13 13 12 12 11 10 10 10 11 12 12 13 13 14 16 17 18 21 22 23 24 24 25
22 24 26 26 27 28 30 34 35 32 31 31 29 25 22 20 18 15 13 14 14 14 13 12 11 12 12 12 14 15 15 15 16 17 18 20 22 23 23 24 24 25
21 24 26 28 29 30 31 33 34 34 33 30 27 25 23 20 16 15 14 15 15 14 13 13 13 13 14 15 16 17 16 16 17 18 20 22 24 24 24 24 24 26
21 24 27 29 30 33 35 35 35 35 32 27 25 24 21 18 17 16 15 15 15 14 14 14 15 15 15 17 18 18 18 17 17 19 21 23 25 25 25 24 25 27
21 25 29 30 33 37 39 38 36 34 29 25 24 22 20 19 17 15 13 13 14 14 15 16 16 17 17 19 20 20 19 18 18 20 23 25 25 25 25 25 26 28
Wind_Direction
219 221 222 221 221 222 219 216 214 211 211 209 207 207 196 187 188 191 197 211 263 329 2 15 16 20 28 29 27 26 25 26 31 32 30 31 30 27 25 24 21 16
219 222 225 224 223 224 223 221 219 217 217 214 211 209 200 193 193 198 207 225 245 271 319 352 3 13 21 22 21 20 18 19 23 25 24 22 19 16 13 9 6 3
218 222 225 226 225 226 224 223 223 222 221 218 213 211 204 198 197 202 211 225 236 245 267 326 356 9 15 16 14 11 11 13 14 12 11 10 7 3 358 353 351 350
220 223 226 227 228 229 227 224 225 224 223 221 216 213 209 203 201 207 214 221 226 229 238 295 359 16 20 16 11 7 7 8 6 2 1 0 356 353 350 347 347 347
224 224 226 228 229 229 229 227 228 226 224 223 220 216 213 208 206 211 216 218 218 217 217 264 25 31 26 19 12 6 6 7 4 360 358 355 352 350 348 348 347 347
227 226 226 228 228 228 229 229 230 229 226 225 222 219 217 212 211 215 217 216 213 208 198 131 47 35 24 14 6 3 5 7 3 359 358 356 352 349 347 345 343 343
228 228 227 228 228 228 229 230 232 231 228 226 223 220 218 216 215 217 216 212 207 202 198 197 0 15 11 359 353 357 1 0 360 359 359 358 353 350 347 343 340 338
228 228 228 227 227 227 227 229 231 231 230 227 223 219 216 216 216 214 211 207 203 203 219 249 289 328 338 337 338 346 351 355 359 360 359 357 353 349 347 342 339 336
229 228 227 226 226 226 226 226 229 230 230 228 224 218 214 213 212 209 204 203 206 218 241 263 285 306 316 321 328 337 346 353 356 355 353 352 349 347 345 342 338 335
233 231 229 226 226 226 225 225 227 228 228 227 222 217 212 208 205 203 200 201 210 224 238 256 278 295 307 316 326 337 344 348 348 346 344 343 342 342 341 339 336 333
237 235 231 227 226 224 223 223 225 226 224 222 219 215 210 204 199 197 198 202 210 219 227 239 260 279 295 314 329 338 342 342 341 338 335 335 334 333 332 331 330 327
234 231 227 226 224 222 222 221 223 223 219 216 215 211 205 200 197 196 198 202 206 210 215 221 233 258 286 308 324 332 333 333 329 326 326 324 323 322 322 321 320 319
229 226 224 223 221 220 219 219 220 218 213 211 210 207 202 198 197 197 199 202 202 200 202 206 213 232 263 286 304 312 315 316 316 317 317 315 315 315 315 315 314 312
230 227 223 221 219 217 215 215 216 213 208 206 203 200 200 199 198 199 198 197 196 193 192 192 193 201 219 250 283 302 309 312 313 313 312 311 311 310 310 309 308 306
233 228 222 218 215 213 211 212 211 206 202 200 197 196 198 199 200 201 197 191 185 183 183 185 190 199 219 263 295 310 317 319 318 316 314 313 312 311 309 306 303 301
231 226 220 214 212 211 211 209 205 200 196 193 192 193 194 194 196 197 196 190 183 180 182 190 200 213 241 286 311 325 332 337 338 334 329 324 322 320 318 314 311 306
229 223 217 213 212 212 210 206 201 197 193 189 190 190 190 191 191 190 191 189 185 184 189 198 209 226 259 296 322 338 346 352 357 354 348 343 338 334 330 327 323 318
228 220 215 213 212 211 209 204 197 191 186 184 185 184 184 185 185 186 186 186 187 188 193 203 215 237 264 297 324 338 347 354 0 0 355 350 346 341 336 333 328 323
234 223 216 212 209 208 207 198 188 183 178 178 179 179 179 179 181 184 184 185 190 193 197 209 226 247 267 296 316 324 334 344 351 352 348 345 343 340 337 334 329 324
240 229 219 212 207 205 200 192 186 179 174 176 178 176 176 178 179 182 183 189 199 203 210 223 237 250 267 292 306 311 318 327 334 337 335 335 334 334 333 331 328 324
245 232 221 213 206 200 193 186 181 173 171 176 179 176 177 179 179 181 189 198 206 215 224 232 239 249 267 287 297 302 307 313 320 324 326 326 326 327 328 326 325 321
249 233 222 213 203 196 189 179 172 169 173 177 175 173 175 178 180 187 198 205 212 223 232 236 243 254 267 282 293 298 300 304 312 317 318 318 319 321 321 320 320 318
251 233 221 210 199 191 183 174 170 172 175 173 169 168 172 176 183 191 202 211 217 225 233 242 251 258 265 279 290 293 294 298 306 311 312 312 313 315 315 314 315 315
248 230 217 207 195 185 176 172 171 172 172 170 167 167 170 175 185 194 203 213 220 228 240 251 259 263 267 277 286 290 290 295 303 307 307 308 309 310 311 310 311 312
243 223 211 201 188 179 174 171 170 169 168 168 166 165 170 178 188 194 202 213 224 236 247 255 263 268 272 278 286 289 289 293 302 305 303 306 308 308 308 308 308 309
234 213 202 192 180 173 170 168 166 164 162 164 166 170 176 181 184 192 204 217 230 241 249 256 263 269 275 280 285 288 289 293 301 304 304 307 309 307 306 305 305 305